Weather in Zelva

Belarus     53˚08′58″N   24˚49′01″E
temp.,
°C
wind,
m/s
gust,
m/s
humid.,
%
clouds,
%
prec.,
mm/h
press.,
hPa
HPBL,
m
3 december, thu
thu300:00−5˚se239749 0.0 102541
03:00−5˚sse349768 0.1 102486
06:00−6˚sse349757 0.0 102372
09:00−5˚se379765 0.1 1022183
12:00−1˚sse6108888 0.0 1021773
15:00sse6108694 0.1 1020755
18:00−1˚sse7128790 0.0 1019640
21:00sse8148696 0.0 1017704
4 december, fri
fri400:00se9168899 0.0 1017654
03:00+1˚sse9168899 0.0 1016651
06:00+1˚sse9168992 0.0 1014647
09:00+2˚sse9169196 0.0 1014737
12:00+2˚sse91693100 0.0 1014758
15:00+3˚sse81592100 0.0 1014747
18:00+2˚sse81591100 0.0 1014753
21:00+4˚sse91889100 0.0 1014755
5 december, sat
sat500:00+5˚sse91889100 0.0 1014758
03:00+5˚sse9189086 0.0 1015641
06:00+5˚se8179084 0.0 1015615
09:00+6˚sse9178992 0.0 1016627
12:00+7˚sse8158798 0.0 1017768
15:00+7˚sse8148699 0.0 1018682
18:00+7˚sse81685100 0.0 1018730
21:00+7˚se91684100 0.0 1020673
6 december, sun
sun600:00+6˚sse9168571 0.0 1020650
03:00+6˚sse9158281 0.0 1021755
06:00+5˚se91581100 0.0 1022700
09:00+3˚se9158289 0.0 1023652
12:00+3˚sse9157646 0.0 1024680
15:00+4˚se9157023 0.0 1024681
18:00+2˚se917710 0.0 1024673
21:00+1˚se918500 0.0 1026619
7 december, mon
mon700:00se918510 0.0 1026615
03:00−1˚se917490 0.0 1026644
06:00−1˚se919480 0.0 1025674
09:00−1˚se919470 0.0 1025681
12:00se1018440 0.0 1025763
15:00+1˚se1017440 0.0 1024864
18:00−1˚se917480 0.0 1025737
21:00−2˚se1017520 0.0 1026667